EST,Max TemperatureF,Mean TemperatureF,Min TemperatureF,Max Dew PointF,MeanDew PointF,Min DewpointF,Max Humidity, Mean Humidity, Min Humidity, Max Sea Level PressureIn, Mean Sea Level PressureIn, Min Sea Level PressureIn, Max VisibilityMiles, Mean VisibilityMiles, Min VisibilityMiles, Max Wind SpeedMPH, Mean Wind SpeedMPH, Max Gust SpeedMPH,PrecipitationIn, CloudCover, Events, WindDirDegrees
2012-12-1,69,55,40,51,45,40,100,73,45,30.39,30.33,30.30,10,7,0,7,2,9,0.00,3,Fog,102
2012-12-2,73,60,46,54,50,46,100,74,47,30.39,30.33,30.26,10,7,2,9,2,15,0.00,3,,215
2012-12-3,76,60,43,53,48,43,100,72,44,30.34,30.29,30.24,10,7,2,10,2,13,0.00,2,,186
2012-12-4,74,65,55,58,53,51,93,73,53,30.33,30.26,30.22,10,10,7,12,3,17,0.00,4,,217
2012-12-5,70,61,51,56,53,49,93,75,57,30.22,30.16,30.12,10,10,7,14,3,18,0.00,5,,283
2012-12-6,61,55,49,55,42,36,84,66,47,30.22,30.16,30.13,10,10,10,16,10,23,T,8,,66
2012-12-7,63,54,45,48,44,39,92,76,60,30.16,30.09,30.01,10,9,5,12,4,16,0.01,6,Rain,60
2012-12-8,69,59,48,56,51,46,96,78,59,30.08,30.04,30.01,10,8,5,7,2,10,T,7,Rain,154
2012-12-9,72,63,54,59,56,54,100,79,57,30.12,30.06,29.98,10,8,3,8,2,14,0.00,6,,181
2012-12-10,66,61,55,61,58,55,100,89,78,29.96,29.83,29.74,10,5,0,18,5,24,0.68,7,Fog-Rain,212
2012-12-11,58,49,39,55,40,34,92,74,56,30.14,29.96,29.80,10,9,7,16,7,21,0.00,2,,288
2012-12-12,48,44,39,39,36,34,85,75,65,30.27,30.20,30.14,10,9,7,18,7,24,T,6,Rain,53
2012-12-13,56,46,35,37,34,30,92,71,50,30.38,30.32,30.24,10,10,7,14,5,18,0.00,5,,58
2012-12-14,59,44,28,34,31,27,92,66,39,30.41,30.32,30.23,10,9,6,8,2,12,0.00,0,,79
2012-12-15,59,48,36,41,37,32,92,72,51,30.26,30.18,30.09,10,10,7,7,2,9,0.00,3,,95
2012-12-16,59,53,46,56,51,41,100,89,77,30.09,29.99,29.92,10,4,1,15,2,21,1.30,8,Rain,31
2012-12-17,57,54,51,56,53,51,100,97,93,29.94,29.83,29.72,10,3,0,12,4,17,0.27,7,Fog-Rain,202
2012-12-18,60,50,40,54,42,26,100,66,31,30.02,29.85,29.74,10,6,3,17,7,23,0.00,1,,259
2012-12-19,68,51,34,44,37,30,89,64,39,30.12,30.07,30.01,10,10,10,8,2,10,0.00,0,,232
2012-12-20,57,47,37,56,46,28,100,79,57,30.07,29.83,29.65,10,7,1,29,8,45,0.77,6,Rain,172
2012-12-21,47,41,34,28,20,14,62,48,33,30.09,29.96,29.84,10,10,10,26,17,40,0.00,1,,289
2012-12-22,55,43,30,17,13,11,49,34,18,30.21,30.16,30.09,10,10,10,16,9,23,0.00,0,,278
2012-12-23,59,45,30,32,24,15,58,44,30,30.22,30.14,30.08,10,10,10,10,4,14,0.00,1,,241
2012-12-24,52,47,42,52,46,31,100,77,53,30.06,29.95,29.88,10,3,0,12,2,15,0.47,8,Fog-Rain,186
2012-12-25,52,51,49,52,50,48,100,97,93,30.04,29.97,29.82,9,2,0,17,7,24,0.27,8,Fog-Rain,93
2012-12-26,59,48,37,58,44,28,100,84,60,29.91,29.66,29.52,10,8,2,24,14,37,1.44,8,Rain-Thunderstorm,207
2012-12-27,49,40,31,31,29,28,85,68,50,30.08,30.01,29.91,10,10,9,17,8,25,0.00,0,,278
2012-12-28,50,40,29,38,32,27,92,74,56,30.17,30.06,29.96,10,8,4,12,4,14,0.09,2,Rain,78
2012-12-29,45,40,35,41,37,24,100,82,64,30.17,29.90,29.78,10,5,1,23,9,33,0.56,8,Rain,310
2012-12-30,51,39,27,26,22,18,78,53,28,30.42,30.34,30.16,10,10,8,16,4,26,0.00,0,,292
2012-12-31,55,41,26,30,26,24,92,62,32,30.41,30.32,30.17,10,9,6,10,2,14,0.00,3,,248